Regional Weather Roundup
Issued by NWS Upton, NY

Current Version | Previous Version | Graphics & Text | Print | Product List | Glossary Off
Versions: 1 2 3 4 5 6 7 8 9 10 11 12 13 14 15 16 17 18 19 20 21 22 23 24 25 26 27 28 29 30

000
ASUS41 KOKX 241605
RWROKX

REGIONAL WEATHER ROUNDUP
NATIONAL WEATHER SERVICE NEW YORK NY
1200 PM EDT WED AUG 24 2016

NOTE: "FAIR" INDICATES FEW OR NO CLOUDS BELOW 12,000 FEET WITH NO
SIGNIFICANT WEATHER AND/OR OBSTRUCTIONS TO VISIBILITY.

NYZ071-072-176-178-NJZ106-104-241700-
NEW YORK CITY METRO AREA

CITY           SKY/WX    TMP DP  RH WIND       PRES   REMARKS
Central Park   SUNNY     83  59  44 W6        30.28F
LaGuardia APRT MOSUNNY   84  57  39 NW3       30.25F
Kennedy INTL   MOSUNNY   82  64  54 S9        30.27F
Newark/Liberty MOSUNNY   86  57  37 W7        30.25F
Bronx Bot Gard   N/A     82  57  42 N8        30.28S
Wall St Helipt SUNNY     84  63  48 S6        30.26F
Teterboro      SUNNY     84  55  36 CALM      30.24F
$$

NYZ177-179-078>081-241700-
LONG ISLAND NEW YORK

CITY           SKY/WX    TMP DP  RH WIND       PRES   REMARKS
Farmingdale    SUNNY     83  56  39 CALM      30.26F
MacArthur/ISP  MOSUNNY   85  57  38 NW6       30.25F
Shirley        SUNNY     83  60  45 SW8       30.26F
Riverhead      NOT AVBL
Westhampton    PTSUNNY   82  61  48 SE10      30.27F
Southampton      N/A     75  64  69 SW5       30.23F
Bridgehampton    N/A     82  64  54 CALM      30.25F
East Hampton   FAIR      81  61  51 W7        30.25F
Montauk          N/A     77  67  71 W3        30.26F
$$

NYZ052-065-067-241700-
HUDSON VALLEY

CITY           SKY/WX    TMP DP  RH WIND       PRES   REMARKS
White Plains   MOSUNNY   82  59  45 NW6       30.26F
Newburgh       SUNNY     79  64  61 CALM      30.28F
Montgomery     SUNNY     80  65  59 CALM      30.25F
Poughkeepsie   SUNNY     80  62  54 CALM      30.24F
Albany         MOSUNNY   78  61  55 VRB5      30.24F
$$

NJZ001-105-106-008-010-013-015-019>022-104-241700-
NEW JERSEY

CITY           SKY/WX    TMP DP  RH WIND       PRES   REMARKS
Newark/Liberty MOSUNNY   86  57  37 W7        30.25F
Teterboro      SUNNY     84  55  36 CALM      30.24F
Caldwell       SUNNY     83  61  47 CALM      30.26F
Morristown     SUNNY     82  59  44 W6        30.26F
Somerville     SUNNY     82  62  50 VRB3      30.25F
Linden         FAIR      83  56  38 CALM      30.27F
Sussex         SUNNY     79  65  62 VRB3      30.27F
Abdover          N/A     79  63  57 VRB3      30.28F
Trenton        MOSUNNY   81  60  48 VRB3      30.27F
Millville      MOSUNNY   81  65  58 W6        30.29F
Atlantic City  MOSUNNY   82  60  47 MISG      30.29F
Wrightstown    SUNNY     81  63  53 VRB5      30.25F
Toms River     MOSUNNY   81  61  50 CALM      30.28F
Belmar         SUNNY     83  61  47 W8        30.28F
$$

PAZ047>061-062-071-241700-
EASTERN PENNSYLVANIA

CITY           SKY/WX    TMP DP  RH WIND       PRES   REMARKS
Philadelphia   MOSUNNY   81  60  48 W7        30.28F
Allentown      SUNNY     81  63  54 SW6       30.27F
Scranton       SUNNY     80  63  55 W9        30.27F
$$

CTZ002-004>006-009-010-012-RIZ004-006-007-MAZ004-011-015-241700-
SOUTHERN NEW ENGLAND
 IN CT

CITY           SKY/WX    TMP DP  RH WIND       PRES   REMARKS
Bradley INTL   MOSUNNY   83  58  42 SW7       30.24F
Hartford       SUNNY     85  60  42 S8        30.23F
Danbury        SUNNY     79  56  45 VRB3      30.27F
Wtrbury/Oxford NOT AVBL
Bridgeport     SUNNY     80  64  58 S9        30.25F
Meriden        SUNNY     83  57  41 S5        30.24F
New Haven      MOSUNNY   79  64  60 S8        30.25F
Chester        FAIR      81  57  44 VRB3      30.25F
Groton         SUNNY     79  66  64 SW9       30.23F
Wilimantic     SUNNY     82  60  47 W8        30.24F

 IN RI

CITY           SKY/WX    TMP DP  RH WIND       PRES   REMARKS
Providence     MOSUNNY   84  57  39 W6        30.23F
Block Island   SUNNY     78  65  63 W14         N/A
Westerly       SUNNY     81  57  43 SW9       30.25F
 IN MA

CITY           SKY/WX    TMP DP  RH WIND       PRES   REMARKS
Boston         MOSUNNY   81  59  47 SE7       30.21F
Worcester      SUNNY     76  57  51 SW8       30.27F
Westfield      SUNNY     81  61  50 VRB7      30.23F
Provincetown   SUNNY     79  60  52 SW6       30.23F
Nantucket      SUNNY     76  66  71 SW13      30.25F
$$

ANZ330-335-338-340-345-350-353-355-241700-
COASTAL MARINE OBSERVATIONS


STATION/POSITION TIME  SKY/WX   TEMP    WIND        PRES    VSBY  WAVE
                                AIR SEA DIR/SP/G                  HT/PER
                 (UTC)          (F)     (DEG/KT/KT) (MB)    (MI)  (FT/S)
NY HARB ENTRANCE 1450            74 77  290/  6/  6 1025.2          2/13
20S FIRE ISLAND  1450            74 76  290/  8/ 10 1025.3          2/13
GREAT SOUTH BAY  1500            76 79  220/  6/  8   N/A
23 SSW MONTAUK P 1450            73 74  250/  8/ 10 1025.8          2/12
15 E BARNEGAT LI 1500               76                N/A           2/13
HUDSON CANYON    1450            75 78              1026.0          2/13
KINGS POINT      1500            78 76              1024.8
EXECUTION ROCKS  1500            78     190/  4/  4   N/A
CENTRAL LI SOUND 1500            73 75  280/  4/  6   N/A           1
EASTERN LI SOUND 1500            73 70  260/  6/ 10   N/A
ROBBINS REEF     1500            78     250/  5/  6 1024.3
$$


>>>>>>>>>>>>>>>>>>>>>>>>>>>> KEY <<<<<<<<<<<<<<<<<<<<<<<<<<<
>                                                          <
>     SKY/WX - Sky Condition/Present Weather               <
>     TMP    - Temperature in Fahrenheit                   <
>     DP     - Dew Point in Fahrenheit                     <
>     RH     - Relative Humidity in Percent                <
>     WIND   - Direction (from) and Speed in MPH           <
>     PRES   - Mean Sea Level Pressure (inches of Hg)      <
>     WCI    - Wind Chill Index                            <
>     VSB    - VISIBILITY IN MILES                         <
>     HX     - HEAT INDEX                                  <
>     TC     - TEMPERATURE IN CELSIUS                      <
>     VRB    - VARIABLE WIND DIRECTION                     <
>                                                          <
>>>>>>>>>>>>>>>>>>>>>>>>>>>> KEY <<<<<<<<<<<<<<<<<<<<<<<<<<<




USA.gov is the U.S. government's official web portal to all federal, state and local government web resources and services.